Location: Dogstar Observatory
(35.3981°N, 83.1078°W)
Time: 14:08:22
(UTC-04:00)

ISS - Visible Passes

Search period start: 26 May 2022 00:00
Search period end: 05 June 2022 00:00
Orbit: 414 x 421 km, 51.6° (Epoch: 26 May)

Date Brightness Start Highest point End Pass type
(mag) Time Alt. Az. Time Alt. Az. Time Alt. Az.
26 May -1.3 22:50:31 10° N 22:52:32 15° NNE 22:53:04 14° NE visible
27 May -0.9 22:03:23 10° N 22:04:10 11° NNE 22:04:56 10° NE visible
27 May -1.2 23:38:12 10° NW 23:39:32 22° NW 23:39:32 22° NW visible
28 May -2.4 22:50:15 10° NNW 22:53:07 33° NNE 22:53:07 33° NNE visible
29 May -1.8 22:02:24 10° NNW 22:05:02 21° NNE 22:06:43 15° ENE visible
29 May -1.0 23:38:46 10° WNW 23:39:37 16° WNW 23:39:37 16° WNW visible
30 May -1.3 21:14:44 10° N 21:16:41 14° NNE 21:18:36 10° ENE visible
30 May -3.3 22:50:26 10° NW 22:53:15 58° WNW 22:53:15 58° WNW visible
31 May -3.5 22:02:17 10° NW 22:05:36 56° NE 22:06:55 31° ESE visible
01 Jun -2.5 21:14:16 10° NNW 21:17:18 32° NE 21:20:20 10° E visible
01 Jun -1.8 22:51:20 10° WNW 22:53:32 20° WSW 22:53:32 20° WSW visible
02 Jun -2.9 22:02:39 10° WNW 22:05:48 39° SW 22:07:16 24° S visible
03 Jun -3.7 21:14:16 10° NW 21:17:37 80° SW 21:20:56 10° SE visible
04 Jun -1.1 22:04:21 10° WSW 22:05:42 12° SW 22:07:04 10° SSW visible
